Location: Frizzleburg
(41.0764°N, 80.4548°W)
Time: 07:47:55
(UTC+00:00)

Cosmos 2016 Rocket - Pass Details

Date: 17 November 2019
Orbit: 947 x 1000 km, 83.0° (Epoch: 05 December)

Event Time Altitude Azimuth Distance (km) Brightness Sun altitude
Rises 11:17:31 0° 204° (SSW) 3,649 6.9 -10.4°
Reaches altitude 10° 11:20:07 10° 210° (SSW) 2,714 6.2 -9.9°
Maximum altitude 11:26:03 46° 283° (WNW) 1,303 4.3 -8.8°
Drops below altitude 10° 11:32:07 10° 356° (N) 2,763 6.2 -7.8°
Sets 11:34:48 0° 2° (N) 3,721 6.9 -7.3°
